Flag for Brazil Weather past 2 weeks in Sorocaba, São Paulo, Brazil

Now
64 °F

Sunny.


Feels Like: 64 °F
Forecast: 51 / 78 °F
Wind: 7 mph from Southeast

Location: Campinas Aeroporto

Current Time: Jul 30, 2014 at 10:10:23 AM

Latest Report: Jul 30, 2014 at 10:00 AM


Visibility: 10 mi

Pressure: 30.36 "Hg

Humidity: 68%

Dew point: 54 °F

Location of SorocabaLocation

Historic Weather in Sorocaba — Graph

°F

Sorocaba temperature yesterday

Maximum temperature yesterday: 72 °F (at 1:00 PM)
Minimum temperature yesterday: 57 °F (at 7:00 AM)
Average temperature yesterday: 63 °F

Past Weeks' High & Low Weather Summary

 TemperatureHumidityPressure
High81 °F (Jul 17, 2:00 PM)100% (Jul 25, 2:00 AM)30.39 "Hg (Jul 25, 2:00 AM)
Low50 °F (Jul 20, 7:00 AM)24% (Jul 21, 4:00 PM)30.01 "Hg (Jul 24, 2:00 AM)
Average63 °F68%30.21 "Hg
* Reported Jul 15 8:00 AM — Jul 30 8:00 AM, Sorocaba, Weather by CustomWeather, © 2014

Note: Actual official high and low records may vary slightly from our data, if they occured in-between our weather recording intervals... More about our weather records

Advertising

Sorocaba weather history for previous 24 hours

 ConditionsComfort  
Time TempWeatherWind HumidityBarometerVisibility
8:00 AM
Jul 30
57 °FClear.8 mph82%30.33 "Hg5 mi
7:00 AM54 °FClear.12 mph94%30.33 "Hg5 mi
6:00 AM54 °FSunny.10 mph94%30.30 "Hg10 mi
5:00 AM54 °FClear.8 mph88%30.30 "Hg10 mi
4:00 AM55 °FClear.9 mph82%30.30 "Hg10 mi
3:00 AM55 °FClear.7 mph82%30.30 "Hg10 mi
2:00 AM55 °FClear.6 mph88%30.33 "Hg10 mi
1:00 AM57 °FClear.12 mph82%30.33 "Hg10 mi
12:00 AM59 °FClear.13 mph77%30.33 "Hg10 mi
11:00 PM
Jul 29
59 °FClear.14 mph77%30.36 "Hg10 mi
10:00 PM61 °FClear.16 mph72%30.33 "Hg10 mi
9:00 PM61 °FClear.16 mph72%30.33 "Hg10 mi
8:00 PM63 °FClear.16 mph73%30.33 "Hg10 mi
7:00 PM64 °FClear.15 mph64%30.33 "Hg10 mi
6:00 PM66 °FPassing clouds.17 mph60%30.30 "HgN/A
5:00 PM68 °FPassing clouds.17 mph56%30.30 "HgN/A
3:00 PM72 °FSunny.14 mph50%30.27 "Hg10 mi
2:00 PM72 °FSunny.15 mph53%30.30 "Hg10 mi
1:00 PM72 °FSunny.10 mph53%30.36 "Hg10 mi
12:00 PM70 °FSunny.13 mph57%30.36 "Hg10 mi
11:00 AM68 °FSunny.13 mph60%30.39 "Hg10 mi
10:00 AM64 °FSunny.20 mph64%30.39 "Hg10 mi
Weather by CustomWeather, © 2014

See weather overviewHow to use our weather pages